| time (UTC) | temp F | wind direction | speed MPH | gust MPH | rain 1hr in | rain 24hr in | rain mn in | humidity % | barometer mb |
| 20260903204529 | 73 | 203 | 0.0 | 0.0 | 0.00 | 0.00 | 0.00 | 40 | 1006.4 |
| 20260903203025 | 73 | 203 | 1.0 | 0.0 | 0.00 | 0.00 | 0.00 | 50 | 1006.7 |
| 20260903201531 | 73 | 202 | 2.0 | 0.0 | 0.00 | 0.00 | 0.00 | 41 | 1007.1 |
| 20260903200006 | 73 | 199 | 1.0 | 0.0 | 0.00 | 0.00 | 0.00 | 40 | 1007.3 |
| 20260903194601 | 72 | 202 | 0.0 | 0.0 | 0.00 | 0.00 | 0.00 | 42 | 1007.5 |
| 20260903193039 | 72 | 202 | 1.0 | 0.0 | 0.00 | 0.00 | 0.00 | 43 | 1007.8 |
| 20260903191536 | 70 | 201 | 2.0 | 0.0 | 0.00 | 0.00 | 0.00 | 46 | 1008.1 |
| 20260903190016 | 69 | 201 | 3.0 | 0.0 | 0.00 | 0.00 | 0.00 | 51 | 1008.5 |
| 20260903184514 | 68 | 198 | 2.0 | 0.0 | 0.00 | 0.00 | 0.00 | 54 | 1008.8 |
| 20260903183053 | 67 | 194 | 2.0 | 0.0 | 0.00 | 0.00 | 0.00 | 59 | 1009.0 |
| 20260903181553 | 66 | 190 | 0.0 | 0.0 | 0.00 | 0.00 | 0.00 | 60 | 1009.2 |
| 20260903180040 | 67 | 183 | 0.0 | 0.0 | 0.00 | 0.00 | 0.00 | 58 | 1009.2 |
| 20260903174532 | 66 | 178 | 0.0 | 0.0 | 0.00 | 0.00 | 0.00 | 61 | 1009.3 |
| 20260903173011 | 65 | 174 | 0.0 | 0.0 | 0.00 | 0.00 | 0.00 | 62 | 1009.3 |
| 20260903171511 | 64 | 173 | 0.0 | 0.0 | 0.00 | 0.00 | 0.00 | 64 | 1009.5 |
| 20260903164553 | 63 | 174 | 0.0 | 0.0 | 0.00 | 0.00 | 0.00 | 67 | 1009.7 |
| 20260903163035 | 62 | 175 | 0.0 | 0.0 | 0.00 | 0.00 | 0.00 | 74 | 1009.7 |
| 20260903161536 | 61 | 178 | 0.0 | 0.0 | 0.00 | 0.00 | 0.00 | 78 | 1009.6 |
| 20260903160019 | 60 | 178 | 0.0 | 0.0 | 0.00 | 0.00 | 0.00 | 81 | 1009.6 |
| 20260903154516 | 59 | 178 | 0.0 | 0.0 | 0.00 | 0.00 | 0.00 | 83 | 1009.8 |
| 20260903153112 | 58 | 178 | 0.0 | 0.0 | 0.00 | 0.00 | 0.00 | 83 | 1009.9 |
| 20260903151610 | 58 | 178 | 0.0 | 0.0 | 0.00 | 0.00 | 0.00 | 84 | 1010.0 |
| 20260903150043 | 57 | 154 | 0.0 | 0.0 | 0.00 | 0.00 | 0.00 | 85 | 1009.9 |
| 20260903144542 | 57 | 190 | 0.0 | 0.0 | 0.00 | 0.00 | 0.00 | 86 | 1009.9 |
| 20260903143020 | 57 | 190 | 0.0 | 0.0 | 0.00 | 0.00 | 0.00 | 87 | 1009.6 |
| 20260903141531 | 56 | 189 | 0.0 | 0.0 | 0.00 | 0.00 | 0.00 | 87 | 1009.6 |
| 20260903140005 | 56 | 190 | 0.0 | 0.0 | 0.00 | 0.00 | 0.00 | 87 | 1009.5 |
| 20260903134502 | 56 | 189 | 0.0 | 0.0 | 0.00 | 0.00 | 0.00 | 86 | 1009.4 |
| 20260903133043 | 56 | 190 | 0.0 | 0.0 | 0.00 | 0.00 | 0.00 | 85 | 1009.5 |
| 20260903131543 | 56 | 189 | 0.0 | 0.0 | 0.00 | 0.00 | 0.00 | 84 | 1009.2 |
| 20260903130024 | 56 | 117 | 0.0 | 0.0 | 0.00 | 0.00 | 0.00 | 85 | 1008.8 |
| 20260903124529 | 56 | 117 | 0.0 | 0.0 | 0.00 | 0.00 | 0.00 | 86 | 1008.5 |
| 20260903123006 | 56 | 116 | 0.0 | 0.0 | 0.00 | 0.00 | 0.00 | 87 | 1008.6 |
| 20260903121507 | 56 | 115 | 0.0 | 0.0 | 0.00 | 0.00 | 0.00 | 87 | 1008.5 |
| 20260903120051 | 56 | 115 | 0.0 | 0.0 | 0.00 | 0.00 | 0.00 | 88 | 1008.9 |
| 20260903114549 | 56 | 115 | 0.0 | 0.0 | 0.00 | 0.00 | 0.00 | 88 | 1008.8 |
| 20260903113030 | 56 | 115 | 0.0 | 0.0 | 0.00 | 0.00 | 0.00 | 88 | 1008.8 |
| 20260903111533 | 56 | 323 | 0.0 | 0.0 | 0.00 | 0.00 | 0.00 | 88 | 1008.8 |
| 20260903110012 | 56 | 322 | 0.0 | 0.0 | 0.00 | 0.00 | 0.00 | 88 | 1008.8 |
| 20260903104515 | 56 | 321 | 0.0 | 0.0 | 0.00 | 0.00 | 0.00 | 87 | 1008.9 |
| 20260903103101 | 56 | 321 | 0.0 | 0.0 | 0.00 | 0.00 | 0.00 | 87 | 1009.0 |
| 20260903101554 | 56 | 321 | 0.0 | 0.0 | 0.00 | 0.00 | 0.00 | 87 | 1008.9 |
| 20260903100034 | 56 | 321 | 0.0 | 0.0 | 0.00 | 0.00 | 0.00 | 86 | 1008.9 |
| 20260903094534 | 56 | 321 | 0.0 | 0.0 | 0.00 | 0.00 | 0.00 | 85 | 1008.9 |
| 20260903093013 | 56 | 321 | 0.0 | 0.0 | 0.00 | 0.00 | 0.00 | 85 | 1009.2 |
| 20260903091515 | 56 | 321 | 0.0 | 0.0 | 0.00 | 0.00 | 0.00 | 84 | 1009.3 |
| 20260903090054 | 56 | 321 | 0.0 | 0.0 | 0.00 | 0.00 | 0.00 | 83 | 1009.3 |
| 20260903084557 | 57 | 321 | 0.0 | 0.0 | 0.00 | 0.00 | 0.00 | 82 | 1009.5 |
| 20260903083033 | 57 | 321 | 0.0 | 0.0 | 0.00 | 0.00 | 0.00 | 81 | 1009.3 |
| 20260903081532 | 58 | 321 | 0.0 | 0.0 | 0.00 | 0.00 | 0.00 | 80 | 1009.7 |
| 20260903080012 | 58 | 321 | 0.0 | 0.0 | 0.00 | 0.00 | 0.00 | 77 | 1009.9 |
| 20260903074510 | 59 | 321 | 0.0 | 0.0 | 0.00 | 0.00 | 0.00 | 75 | 1009.7 |
| 20260903073051 | 59 | 321 | 0.0 | 0.0 | 0.00 | 0.00 | 0.00 | 71 | 1009.6 |
| 20260903071553 | 60 | 321 | 0.0 | 0.0 | 0.00 | 0.00 | 0.00 | 67 | 1009.9 |
| 20260903070029 | 60 | 321 | 0.0 | 0.0 | 0.00 | 0.00 | 0.00 | 62 | 1009.8 |
| 20260903064525 | 60 | 35 | 0.0 | 0.0 | 0.00 | 0.00 | 0.00 | 60 | 1009.6 |
| 20260903063005 | 61 | 31 | 0.0 | 0.0 | 0.00 | 0.00 | 0.00 | 59 | 1009.3 |
| 20260903061512 | 61 | 30 | 0.0 | 0.0 | 0.00 | 0.00 | 0.00 | 59 | 1009.3 |
| 20260903060046 | 61 | 21 | 0.0 | 0.0 | 0.00 | 0.00 | 0.00 | 58 | 1009.3 |
| 20260903054546 | 61 | 32 | 0.0 | 0.0 | 0.00 | 0.00 | 0.00 | 58 | 1009.3 |
| 20260903053025 | 61 | 16 | 0.0 | 0.0 | 0.00 | 0.00 | 0.00 | 57 | 1009.3 |
| 20260903051523 | 62 | 17 | 0.0 | 0.0 | 0.00 | 0.00 | 0.00 | 56 | 1009.2 |
| 20260903050017 | 62 | 24 | 1.0 | 0.0 | 0.00 | 0.00 | 0.00 | 55 | 1009.2 |
| 20260903044501 | 63 | 360 | 3.0 | 0.0 | 0.00 | 0.00 | 0.00 | 54 | 1009.1 |
| 20260903043041 | 63 | 344 | 5.0 | 0.0 | 0.00 | 0.00 | 0.00 | 53 | 1008.9 |
| 20260903041545 | 64 | 28 | 3.0 | 0.0 | 0.00 | 0.00 | 0.00 | 51 | 1008.6 |
| 20260903040019 | 64 | 360 | 3.0 | 0.0 | 0.00 | 0.00 | 0.00 | 50 | 1008.4 |
| 20260903034515 | 65 | 351 | 1.0 | 0.0 | 0.00 | 0.00 | 0.00 | 48 | 1008.2 |
| 20260903033101 | 66 | 335 | 1.0 | 0.0 | 0.00 | 0.00 | 0.00 | 47 | 1008.1 |
| 20260903031556 | 67 | 331 | 2.0 | 0.0 | 0.00 | 0.00 | 0.00 | 44 | 1007.9 |
| 20260903030038 | 69 | 336 | 1.0 | 0.0 | 0.00 | 0.00 | 0.00 | 34 | 1007.8 |
| 20260903024538 | 70 | 232 | 1.0 | 0.0 | 0.00 | 0.00 | 0.00 | 33 | 1007.2 |
| 20260903023027 | 70 | 234 | 1.0 | 0.0 | 0.00 | 0.00 | 0.00 | 31 | 1007.1 |
| 20260903021521 | 71 | 234 | 2.0 | 0.0 | 0.00 | 0.00 | 0.00 | 30 | 1006.9 |
| 20260903020006 | 71 | 227 | 3.0 | 0.0 | 0.00 | 0.00 | 0.00 | 31 | 1006.9 |
| 20260903014501 | 71 | 223 | 3.0 | 0.0 | 0.00 | 0.00 | 0.00 | 30 | 1006.8 |
| 20260903013043 | 72 | 227 | 5.0 | 0.0 | 0.00 | 0.00 | 0.00 | 29 | 1006.8 |
| 20260903011543 | 73 | 225 | 3.0 | 0.0 | 0.00 | 0.00 | 0.00 | 29 | 1006.8 |
| 20260903010030 | 73 | 227 | 3.0 | 0.0 | 0.00 | 0.00 | 0.00 | 28 | 1006.8 |
| 20260903004530 | 73 | 234 | 4.0 | 0.0 | 0.00 | 0.00 | 0.00 | 28 | 1006.8 |
| 20260903003029 | 74 | 227 | 5.0 | 0.0 | 0.00 | 0.00 | 0.00 | 28 | 1006.8 |
| 20260903001534 | 74 | 259 | 6.0 | 0.0 | 0.00 | 0.00 | 0.00 | 27 | 1006.8 |
| 20260903000036 | 75 | 221 | 7.0 | 0.0 | 0.00 | 0.00 | 0.00 | 26 | 1006.6 |
| 20260902234528 | 76 | 267 | 6.0 | 0.0 | 0.00 | 0.00 | 0.00 | 25 | 1006.6 |
| 20260902233029 | 76 | 243 | 5.0 | 0.0 | 0.00 | 0.00 | 0.00 | 26 | 1006.6 |
| 20260902231531 | 76 | 274 | 4.0 | 0.0 | 0.00 | 0.00 | 0.00 | 26 | 1006.7 |
| 20260902230028 | 76 | 237 | 4.0 | 0.0 | 0.00 | 0.00 | 0.00 | 25 | 1006.8 |
| 20260902224513 | 76 | 261 | 5.0 | 0.0 | 0.00 | 0.00 | 0.00 | 25 | 1006.9 |
| 20260902223008 | 76 | 248 | 6.0 | 0.0 | 0.00 | 0.00 | 0.00 | 25 | 1007.0 |
| 20260902221609 | 76 | 212 | 6.0 | 0.0 | 0.00 | 0.00 | 0.00 | 25 | 1007.1 |
| 20260902220059 | 76 | 217 | 5.0 | 0.0 | 0.00 | 0.00 | 0.00 | 25 | 1007.2 |
| 20260902214533 | 76 | 261 | 6.0 | 0.0 | 0.00 | 0.00 | 0.00 | 25 | 1007.2 |
| 20260902213034 | 76 | 236 | 6.0 | 0.0 | 0.00 | 0.00 | 0.00 | 25 | 1007.2 |
| 20260902211517 | 76 | 256 | 7.0 | 0.0 | 0.00 | 0.00 | 0.00 | 25 | 1007.3 |
| 20260902210014 | 77 | 244 | 7.0 | 0.0 | 0.00 | 0.00 | 0.00 | 25 | 1007.5 |